Latest Coastal Weather Observations for Truscott

IDW60701

Issued at 12:05 am WST Sunday 31 August 2014 (issued every 10 minutes, with the page automatically refreshed every 10 minutes)

About coastal observations | Map of coastal stations | Coastal observations for WA | Marine services | Other Formats
Station Details ID: 001020 Name: TRUSCOTT Lat: -14.09 Lon: 126.39 Height: 51.0 m
Data from the previous 72 hours. | See also: Recent months at Truscott
Date/Time
WST
Temp

°C
Wind Pressure Rain
since 9am
mm
Weather Cloud Vis
km
Sea
Height
m
Swell
Dir
 
Speed
knots
Gust
knots
hPa Trend Height
m
Period
s
Dir
31/12:00am 20.7 SSW 5 7 1013.2 - 0.0 - - 10 - - - -
 
Date/Time
WST
Temp

°C
Wind Pressure Rain
since 9am
mm
Weather Cloud Vis
km
Sea
Height
m
Swell
Dir
 
Speed
knots
Gust
knots
hPa Trend Height
m
Period
s
Dir
30/11:30pm 19.0 SSW 4 - 1013.0 - 0.0 - - 10 - - - -
30/11:00pm 20.0 SW 3 - 1014.0 - 0.0 - - 10 - - - -
30/10:30pm 20.0 SE 2 - 1014.0 - 0.0 - - 10 - - - -
30/10:00pm 19.0 E 4 - 1013.0 - 0.0 - - 10 - - - -
30/09:30pm 21.0 E 4 - 1014.0 - 0.0 - - 10 - - - -
30/09:00pm 21.5 E 4 - 1013.7 - 0.0 - - 10 - - - -
30/08:30pm 22.0 E 6 - 1014.0 - 0.0 - - 10 - - - -
30/08:00pm 22.0 E 5 - 1014.0 - 0.0 - - 10 - - - -
30/07:30pm 23.0 ENE 5 - 1013.0 - 0.0 - - 10 - - - -
30/07:00pm 23.0 ENE 4 - 1013.0 - 0.0 - - 10 - - - -
30/06:30pm 24.0 NE 3 - 1012.0 - 0.0 - - 10 - - - -
30/06:00pm 25.3 NNE 5 - 1012.0 - 0.0 - - 10 - - - -
30/05:30pm 27.0 NNE 6 - 1012.0 - 0.0 - - 10 - - - -
30/05:00pm 28.0 NNE 6 - 1012.0 - 0.0 - - 10 - - - -
30/04:30pm 29.0 NNE 7 - 1011.0 - 0.0 - - 10 - - - -
30/04:00pm 29.0 NNE 10 - 1011.0 - 0.0 - - 10 - - - -
30/03:30pm 30.0 N 10 - 1011.0 - 0.0 - - 10 - - - -
30/03:00pm 30.5 N 11 - 1010.7 - 0.0 - - 10 - - - -
30/02:30pm 30.0 N 10 - 1011.0 - 0.0 - - 10 - - - -
30/02:00pm 32.0 ENE 7 - 1011.0 - 0.0 - - 10 - - - -
30/01:30pm 32.0 E 10 - 1012.0 - 0.0 - - 10 - - - -
30/01:00pm 32.0 ENE 8 - 1012.0 - 0.0 - - 10 - - - -
30/12:30pm 32.0 ENE 9 - 1012.0 - 0.0 - - 10 - - - -
30/12:00pm 31.6 ENE 11 - 1012.9 - 0.0 - - 10 - - - -
30/11:30am 32.0 E 8 - 1013.0 - 0.0 - - 10 - - - -
30/11:00am 31.0 E 10 - 1014.0 - 0.0 - - 10 - - - -
30/10:30am 30.0 E 11 - 1014.0 - 0.0 - - 10 - - - -
30/10:00am 31.0 ESE 9 - 1015.0 - 0.0 - - 10 - - - -
30/09:30am 30.0 ESE 11 - 1015.0 - 0.0 - - 10 - - - -
30/09:00am 29.9 ESE 7 - 1015.4 - 0.0 - - 10 - - - -
30/08:30am 29.0 SE 6 7 1016.0 - 0.0 - - 10 - - - -
30/08:00am 26.0 SSE 5 - 1016.0 - 0.0 - - 10 - - - -
30/07:30am 24.0 SSW 6 - 1015.0 - 0.0 - - 10 - - - -
30/07:00am 21.0 SSW 5 - 1015.0 - 0.0 - - 10 - - - -
30/06:30am 19.0 SSW 5 - 1015.0 - 0.0 - - 10 - - - -
30/06:00am 17.9 SSW 6 - 1014.4 - 0.0 - - 10 - - - -
30/05:30am 19.0 SSW 6 - 1014.0 - 0.0 - - 10 - - - -
30/05:00am 20.0 SSW 7 - 1014.0 - 0.0 - - 10 - - - -
30/04:30am 19.0 SSW 7 - 1014.0 - 0.0 - - 10 - - - -
30/04:00am 18.0 SSW 6 - 1014.0 - 0.0 - - 10 - - - -
30/03:30am 17.0 SSW 5 - 1014.0 - 0.0 - - 10 - - - -
30/03:00am 17.0 SSW 5 - 1013.8 - 0.0 - - 10 - - - -
30/02:30am 18.0 S 4 - 1014.0 - 0.0 - - 10 - - - -
30/02:00am 20.0 SSW 7 - 1014.0 - 0.0 - - 10 - - - -
30/01:30am 17.0 S 3 - 1014.0 - 0.0 - - 10 - - - -
30/01:00am 17.0 SSW 3 - 1014.0 - 0.0 - - 10 - - - -
30/12:30am 17.0 SSW 4 - 1015.0 - 0.0 - - 10 - - - -
30/12:00am 17.5 WSW 0 0 1014.7 - 0.0 - - 10 - - - -
 
Date/Time
WST
Temp

°C
Wind Pressure Rain
since 9am
mm
Weather Cloud Vis
km
Sea
Height
m
Swell
Dir
 
Speed
knots
Gust
knots
hPa Trend Height
m
Period
s
Dir
29/11:30pm 17.0 CALM 0 - 1015.0 - 0.0 - - 10 - - - -
29/11:00pm 19.0 SSW 3 - 1015.0 - 0.0 - - 10 - - - -
29/10:30pm 19.0 SSW 2 - 1015.0 - 0.0 - - 10 - - - -
29/10:00pm 20.0 ESE 4 - 1015.0 - 0.0 - - 10 - - - -
29/09:30pm 21.0 E 4 - 1014.0 - 0.0 - - 10 - - - -
29/09:00pm 22.3 E 5 - 1014.4 - 0.0 - - 10 - - - -
29/08:30pm 23.0 ENE 6 - 1014.0 - 0.0 - - 10 - - - -
29/08:00pm 23.0 ENE 5 - 1014.0 - 0.0 - - 10 - - - -
29/07:30pm 24.0 ENE 6 - 1014.0 - 0.0 - - 10 - - - -
29/07:00pm 25.0 ENE 7 - 1013.0 - 0.0 - - 10 - - - -
29/06:30pm 26.0 ENE 9 - 1013.0 - 0.0 - - 10 - - - -
29/06:00pm 26.4 ENE 9 - 1012.6 - 0.0 - - 10 - - - -
29/05:30pm 27.0 NE 8 - 1012.0 - 0.0 - - 10 - - - -
29/05:00pm 28.0 NE 10 - 1012.0 - 0.0 - - 10 - - - -
29/04:30pm 29.0 NE 9 - 1012.0 - 0.0 - - 10 - - - -
29/04:00pm 30.0 NE 9 - 1012.0 - 0.0 - - 10 - - - -
29/03:30pm 30.0 N 8 - 1012.0 - 0.0 - - 10 - - - -
29/03:00pm 30.2 N 10 - 1011.7 - 0.0 - - 10 - - - -
29/02:30pm 32.0 NE 7 - 1012.0 - 0.0 - - 10 - - - -
29/02:00pm 32.0 NNE 9 - 1012.0 - 0.0 - - 10 - - - -
29/01:30pm 32.0 E 7 - 1012.0 - 0.0 - - 10 - - - -
29/01:00pm 32.0 ESE 7 - 1013.0 - 0.0 - - 10 - - - -
29/12:30pm 31.0 E 8 - 1013.0 - 0.0 - - 10 - - - -
29/12:00pm 31.0 E 10 - 1013.6 - 0.0 - - 10 - - - -
29/11:30am 31.0 E 9 - 1014.0 - 0.0 - - 10 - - - -
29/11:00am 30.0 ESE 10 - 1015.0 - 0.0 - - 10 - - - -
29/10:30am 31.0 E 9 - 1015.0 - 0.0 - - 10 - - - -
29/10:00am 30.0 ESE 8 - 1015.0 - 0.0 - - 10 - - - -
29/09:30am 29.0 ESE 10 - 1016.0 - 0.0 - - 10 - - - -
29/09:00am 27.9 ESE 8 - 1016.0 - 0.0 - - 10 - - - -
29/08:30am 27.0 SE 10 - 1016.0 - 0.0 - - 10 - - - -
29/08:00am 26.0 ESE 10 - 1016.0 - 0.0 - - 10 - - - -
29/07:30am 25.0 SE 7 - 1016.0 - 0.0 - - 10 - - - -
29/07:00am 22.0 SE 4 - 1015.0 - 0.0 - - 10 - - - -
29/06:57am 21.0 SE 4 - 1015.0 - 0.0 - - 10 - - - -
29/06:30am 16.0 SE 4 - 1015.0 - 0.0 - - 10 - - - -
29/06:00am 13.2 CALM 0 - 1014.9 - 0.0 - - 10 - - - -
29/05:30am 12.0 W 1 - 1014.0 - 0.0 - - 10 - - - -
29/05:00am 14.0 CALM 0 - 1014.0 - 0.0 - - 10 - - - -
29/04:30am 16.0 SSW 3 - 1014.0 - 0.0 - - 10 - - - -
29/04:00am 17.0 SW 4 - 1014.0 - 0.0 - - 10 - - - -
29/03:30am 18.0 SSW 4 - 1014.0 - 0.0 - - 10 - - - -
29/03:00am 18.2 SSW 5 - 1013.7 - 0.0 - - 10 - - - -
29/02:30am 17.0 SW 3 - 1014.0 - 0.0 - - 10 - - - -
29/02:00am 19.0 S 4 - 1014.0 - 0.0 - - 10 - - - -
29/01:30am 19.0 S 5 - 1014.0 - 0.0 - - 10 - - - -
29/01:00am 19.0 SSW 5 - 1015.0 - 0.0 - - 10 - - - -
29/12:30am 19.0 S 5 - 1015.0 - 0.0 - - 10 - - - -
29/12:00am 17.5 E 4 - 1014.8 - 0.0 - - 10 - - - -
 
Date/Time
WST
Temp

°C
Wind Pressure Rain
since 9am
mm
Weather Cloud Vis
km
Sea
Height
m
Swell
Dir
 
Speed
knots
Gust
knots
hPa Trend Height
m
Period
s
Dir
28/11:30pm 18.0 SSE 3 - 1015.0 - 0.0 - - 10 - - - -
28/11:00pm 19.0 SW 3 - 1015.0 - 0.0 - - 10 - - - -
28/10:30pm 19.0 S 4 - 1015.0 - 0.0 - - 10 - - - -
28/10:00pm 21.0 E 4 - 1015.0 - 0.0 - - 10 - - - -
28/09:30pm 21.0 ENE 5 - 1015.0 - 0.0 - - 10 - - - -
28/09:00pm 21.3 E 5 - 1014.6 - 0.0 - - 10 - - - -
28/08:30pm 23.0 ENE 6 - 1014.0 - 0.0 - - 10 - - - -
28/08:00pm 23.0 ENE 7 - 1014.0 - 0.0 - - 10 - - - -
28/07:30pm 24.0 ENE 7 - 1014.0 - 0.0 - - 10 - - - -
28/07:00pm 24.0 ENE 7 - 1014.0 - 0.0 - - 10 - - - -
28/06:30pm 25.0 ENE 8 - 1013.0 - 0.0 - - 10 - - - -
28/06:00pm 25.4 ENE 10 - 1012.9 - 0.0 - - 10 - - - -
28/05:30pm 26.0 NE 10 - 1013.0 - 0.0 - - 10 - - - -
28/05:00pm 27.0 NE 11 - 1012.0 - 0.0 - - 10 - - - -
28/04:30pm 28.0 NE 12 - 1012.0 - 0.0 - - 10 - - - -
28/04:00pm 29.0 NE 10 - 1012.0 - 0.0 - - 10 - - - -
28/03:30pm 29.0 NE 10 - 1011.0 - 0.0 - - 10 - - - -
28/03:00pm 30.6 NE 10 - 1011.3 - 0.0 - - 10 - - - -
28/02:30pm 31.0 NE 10 - 1011.0 - 0.0 - - 10 - - - -
28/02:00pm 31.0 ENE 10 - 1012.0 - 0.0 - - 10 - - - -
28/01:30pm 31.0 E 10 - 1012.0 - 0.0 - - 10 - - - -
28/01:00pm 31.0 E 9 - 1012.0 - 0.0 - - 10 - - - -
28/12:30pm 31.0 E 9 - 1013.0 - 0.0 - - 10 - - - -
28/12:00pm 31.3 E 9 - 1013.1 - 0.0 - - 10 - - - -
28/11:30am 30.0 E 8 - 1014.0 - 0.0 - - 10 - - - -
28/11:00am 30.0 E 10 - 1014.0 - 0.0 - - 10 - - - -
28/10:30am 30.0 E 10 - 1015.0 - 0.0 - - 10 - - - -
28/10:00am 29.0 E 10 - 1015.0 - 0.0 - - 10 - - - -
28/09:30am 28.0 E 11 - 1015.0 - 0.0 - - 10 - - - -
28/09:00am 27.3 ESE 10 - 1015.2 - 0.0 - - 10 - - - -
28/08:30am 26.0 E 10 - 1015.0 - 0.0 - - 10 - - - -
28/08:00am 25.0 ESE 7 - 1015.0 - 0.0 - - 10 - - - -
28/07:30am 24.0 ESE 7 - 1015.0 - 0.0 - - 10 - - - -
28/07:00am 22.0 ESE 6 - 1015.0 - 0.0 - - 10 - - - -
28/06:30am 21.0 ESE 5 - 1014.0 - 0.0 - - 10 - - - -
28/06:00am 18.7 E 5 - 1014.1 - 0.0 - - 10 - - - -
28/05:30am 17.0 ESE 5 - 1014.0 - 0.0 - - 10 - - - -
28/05:00am 15.0 SE 4 - 1014.0 - 0.0 - - 10 - - - -
28/04:30am 16.0 S 1 - 1014.0 - 0.0 - - 10 - - - -
28/04:00am 16.0 S 3 - 1014.0 - 0.0 - - 10 - - - -
28/03:30am 18.0 CALM 0 - 1013.0 - 0.0 - - 10 - - - -
28/03:00am 18.3 SW 4 - 1013.2 - 0.0 - - 10 - - - -
28/02:30am 18.0 SSW 4 - 1013.0 - 0.0 - - 10 - - - -
28/02:00am 18.0 SW 2 - 1013.0 - 0.0 - - 10 - - - -
28/01:30am 19.0 SW 4 - 1014.0 - 0.0 - - 10 - - - -
28/01:00am 18.0 SSE 3 - 1014.0 - 0.0 - - 10 - - - -
28/12:30am 18.0 ESE 4 - 1014.0 - 0.0 - - 10 - - - -

Other Formats:

Comma delimited format used in spreadsheet applications
http://www.bom.gov.au/fwo/IDW60701/IDW60701.95101.axf

JavaScript Object Notation format (JSON) in row-major order
http://www.bom.gov.au/fwo/IDW60701/IDW60701.95101.json